TITAN 3C TRANSTAGE DEB, 2789

Orbit data source: Space-Track

TITAN 3C TRANSTAGE DEB, 2789 is space debris in LEO originally from a launch on Fri, 15 Oct 1965 UTC launched from the Air Force Eastern Test Range (AFETR). Debris objects in space refer to the collection of defunct objects orbiting the Earth. Examples of debris include non-operational satellites, rocket bodies, and fragments generated from explosions, collisions, or faulty payload assembly.

Loading next visibility...
Identifier
2789, 1965-082KR
Orbit
LEO
Country
Flag of USUS
Related business
Manufacturer
Unknown
Mission
Spacecraft
Bus & Motor
Unknown
Mass
Unknown
Launch date (UTC)
1965-10-15 (60 years ago)
Launch vehicle
Unknown
Launch site
Air Force Eastern Test Range (AFETR)
Object type
Payload
Rocket body
Debris
Shape & HBR
Unknown shape, 0.1 m
Radar Cross Section
Small (<0.1 m²)

Expand to show TLE details & history
Last TLE update: 14 hours ago

TLE from 14 hours ago
0 TITAN 3C TRANSTAGE DEB
1  2789U 65082KR  25296.73714350  .00275775  00000-0  43291-2 0  9995
2  2789  32.2598 138.3678 0023798 307.4118  52.4390 15.51380261 45392
Epoch: 2025-10-23T17:41Z
TLE epoch observation values (Epoch: 2025-10-23T17:41:29.198Z)
Latitude
-0°
Longitude
-159.39597°
Altitude
401.479 km
Speed
7.678 km/s
True Right ascension
09h 13m 28s
True Declination
0° 00' 00"
Sunlit
Object was in daylight at epoch
Visualization orbit readout
Latitude
Unknown
Longitude
Unknown
Altitude
Unknown
Speed
Unknown
Apparent Right ascension
Unknown
Apparent Declination
Unknown
Sunlit
N/A
Visualization observer readout
Local Sidereal Time
02:58:33
Azimuth
Unknown
Elevation
Unknown
Doppler factor
Unknown
Orbital elements
Apogee altitude
432.585 km
Perigee altitude
400.245 km
Semi-major axis
6,794.552 km
Eccentricity
0.00238
Inclination
32.2598°
RAAN
138.3678°
Arg. of periapsis
307.4118°
True anomaly
52.65557°
Mean anomaly
52.439°
Eccentric anomaly
52.54724°
Mean motion
3.87527 °/min
Orbital period
92.9 mins
BSTAR
0.0043291

Documentation

Showing up to 5 results
|